RH
17 19 21 21 16 15 14 13 11 9 5 5 8 11 17 34 42 59 66 75 88 63 72 68 47 45 25 11 9 37 82 66 64 76 90 93 88 68 49 52 36 38 18 15 21
20 21 25 25 22 21 18 15 13 10 6 7 10 14 27 50 53 66 83 75 100 92 80 55 45 46 35 20 10 14 56 78 98 87 98 97 89 78 55 56 50 41 21 16 21
20 23 27 27 26 25 22 18 15 11 7 9 12 17 35 58 70 65 73 80 66 86 66 54 46 44 43 27 14 9 24 76 99 98 97 96 92 83 67 50 48 54 35 23 22
20 24 26 24 24 25 26 22 18 12 8 11 15 22 39 59 75 78 71 73 71 68 62 49 47 40 45 32 21 10 11 33 95 97 96 97 96 82 71 58 55 51 40 26 30
22 25 26 25 25 28 30 27 22 16 9 12 16 22 33 55 68 76 73 65 61 59 62 49 44 42 40 35 25 14 10 19 52 95 97 90 96 86 92 63 62 52 48 38 43
27 31 31 29 28 31 32 31 25 22 11 12 17 23 24 51 52 64 68 68 62 55 61 48 42 38 37 37 28 21 11 12 31 74 97 97 92 97 90 90 83 66 52 48 52
30 33 34 35 32 34 34 34 31 26 16 12 16 23 22 48 45 49 56 57 54 55 50 41 38 31 32 34 29 23 17 11 20 46 92 96 99 95 96 97 93 87 72 53 62
34 35 37 38 37 37 35 36 35 31 25 14 16 21 20 36 41 45 52 47 39 42 44 45 31 27 26 27 30 23 20 13 11 36 66 96 93 98 91 97 92 97 85 77 73
37 39 40 40 40 40 39 39 39 37 32 22 15 19 19 26 36 46 42 40 36 35 45 42 39 27 25 25 27 26 22 16 12 13 39 85 90 95 96 90 96 96 96 96 91
39 41 43 42 44 43 44 44 44 42 40 33 20 19 22 23 33 35 35 38 37 43 50 55 42 34 24 21 24 24 22 19 14 12 14 60 87 98 97 97 96 98 93 96 97
35 38 42 43 45 46 47 47 50 48 45 41 34 20 18 21 23 27 32 37 37 37 45 53 59 41 31 23 19 18 19 18 18 14 11 19 54 93 95 97 80 95 89 96 97
25 26 32 39 43 46 46 50 54 55 52 48 43 35 23 20 24 23 28 30 35 33 34 41 53 53 40 28 25 18 15 15 18 19 13 11 22 45 91 92 98 91 98 93 89
26 19 21 31 34 37 46 49 52 56 59 59 53 48 38 27 22 27 26 27 27 29 33 36 49 58 48 42 28 25 22 17 14 16 17 13 11 23 46 86 94 97 97 94 82
26 23 21 29 35 37 49 55 52 56 59 65 62 58 51 42 29 23 29 28 26 26 24 28 39 50 50 44 37 33 27 23 18 13 14 16 10 10 22 37 73 92 90 98 98
19 22 19 25 30 34 43 49 48 52 56 61 69 73 69 53 46 34 26 32 34 32 30 30 32 36 39 32 41 48 42 31 22 17 12 13 13 10 10 19 34 62 77 89 96
20 18 22 20 22 26 30 37 44 46 57 65 69 72 77 79 65 48 40 30 30 39 41 37 40 41 44 38 32 35 43 55 34 20 13 12 11 11 10 9 16 28 50 68 77
27 20 18 21 18 20 24 26 35 37 42 51 63 71 73 80 82 79 54 47 36 36 37 48 48 42 44 42 41 41 41 45 49 26 14 14 12 9 10 10 10 12 20 34 43
34 25 18 17 15 15 25 25 26 33 37 42 50 61 71 78 87 88 84 70 50 45 46 39 43 50 54 50 48 49 47 41 36 31 23 20 13 9 9 10 10 10 10 15 27
38 33 27 20 19 21 31 34 32 30 31 33 40 48 50 70 78 89 95 89 85 60 50 40 38 38 42 54 59 68 55 56 36 31 31 21 13 11 10 10 12 11 10 10 17
39 40 32 33 26 24 29 32 35 39 35 31 31 37 47 44 59 76 91 97 100 97 78 55 52 40 40 40 41 56 64 55 51 33 30 25 17 12 15 14 14 12 10 10 11
41 43 38 34 36 28 28 27 29 32 34 34 32 30 33 43 41 53 76 91 95 98 100 97 71 53 48 46 44 38 38 48 59 48 38 25 22 24 19 17 14 13 11 10 10
45 46 42 38 43 46 40 29 30 35 36 34 34 32 31 32 38 36 46 65 94 95 96 100 100 96 60 52 51 53 45 35 36 46 46 35 20 35 35 25 22 20 15 12 10
49 51 49 44 47 55 53 50 34 38 42 46 37 33 33 33 34 37 31 39 58 84 96 96 91 98 100 78 51 52 56 54 42 31 36 38 22 96 69 40 22 21 16 13 11
56 55 52 49 54 61 55 55 48 35 44 60 68 60 65 40 39 37 34 26 35 72 99 99 99 98 99 100 99 58 55 54 53 45 48 33 31 93 96 76 34 21 20 15 11
62 57 57 55 59 60 58 52 54 44 36 47 51 47 49 48 43 40 37 32 29 41 87 95 100 99 99 89 96 100 78 50 43 50 35 51 35 85 93 100 91 45 23 15 12
55 59 59 61 64 63 58 52 54 57 71 55 47 55 44 44 62 39 34 36 41 35 37 84 89 88 98 98 94 94 100 94 80 45 42 44 38 48 100 46 48 44 38 36 29
47 46 42 45 46 48 52 54 47 44 47 66 56 49 57 58 61 80 61 60 39 52 35 45 80 80 77 87 89 92 94 97 100 94 47 40 35 45 50 49 26 25 33 45 42
Wind_Speed
26 26 28 28 29 33 36 38 42 47 49 50 54 46 38 35 27 18 16 15 17 26 32 34 41 53 58 59 63 65 69 66 58 52 48 47 44 39 37 31 27 24 29 32 29
23 25 26 27 30 33 35 38 43 48 50 50 52 41 35 29 21 17 10 8 5 16 23 28 35 46 54 55 59 62 65 66 57 53 48 46 48 43 38 33 29 27 30 32 31
22 23 25 28 31 34 36 38 44 48 49 48 49 39 31 25 21 15 10 7 8 9 15 22 30 40 50 53 54 58 60 62 61 57 54 48 49 45 39 35 32 28 30 32 32
22 24 27 30 32 34 36 39 44 48 49 47 47 37 31 21 19 14 9 6 3 5 9 17 24 33 43 49 52 54 58 60 66 60 57 46 44 45 42 38 34 32 34 34 33
24 25 28 30 32 34 37 40 44 48 49 46 45 37 31 22 17 14 10 7 7 8 9 15 19 27 38 43 49 51 55 58 60 64 60 54 46 46 43 41 38 35 32 33 33
24 26 29 31 33 35 37 40 43 47 49 46 44 37 31 25 17 13 11 11 9 7 7 14 18 23 31 40 47 50 52 55 57 53 65 55 55 41 44 45 41 36 33 36 35
23 27 30 32 33 35 37 40 42 45 49 47 43 36 30 24 22 14 9 10 9 9 5 10 16 21 29 37 42 48 50 52 57 58 62 58 54 48 48 50 45 39 34 35 34
23 26 29 31 33 35 38 40 42 44 47 47 43 38 32 26 24 17 10 10 10 9 6 3 12 17 25 34 40 44 46 50 53 57 55 59 53 43 51 44 47 43 36 35 30
24 26 28 30 32 35 37 39 40 41 44 46 44 40 34 30 27 18 10 11 11 9 8 4 7 14 19 28 37 42 42 46 49 53 57 58 54 53 45 50 45 42 41 36 38
25 26 28 29 30 33 35 36 38 39 41 42 45 43 35 29 25 20 13 11 11 11 9 7 5 11 17 21 28 35 39 43 47 49 53 57 56 59 46 47 49 48 48 43 39
24 25 27 29 32 33 34 35 35 35 38 40 42 43 40 33 27 21 18 15 13 12 11 10 5 8 15 20 23 28 32 37 42 46 49 54 58 57 59 45 56 43 54 47 40
22 24 27 30 33 35 35 35 33 34 35 37 38 41 41 37 30 24 21 17 15 13 9 8 8 3 12 19 22 25 27 31 37 44 47 51 57 60 59 61 51 54 47 49 49
19 23 25 29 32 34 36 37 36 36 33 33 35 36 38 38 33 29 23 19 17 14 13 12 12 3 5 12 19 24 27 30 32 40 47 49 54 57 59 60 59 50 51 51 51
20 21 23 27 30 33 37 37 39 36 36 35 34 33 33 34 34 31 28 21 19 16 15 12 11 7 3 6 12 17 24 29 32 34 41 48 52 54 58 59 57 56 48 52 55
22 22 23 24 27 29 33 36 40 37 40 38 36 32 30 30 31 31 27 27 21 17 16 14 11 9 6 5 6 12 18 26 32 37 37 40 50 50 54 58 57 56 58 55 47
22 22 22 23 25 27 29 34 35 40 40 41 38 35 32 28 27 27 28 25 24 22 16 13 11 8 6 6 7 9 14 21 28 34 40 38 41 48 49 52 55 54 55 53 47
23 23 23 23 23 24 27 30 33 38 38 41 41 38 34 32 27 24 23 24 22 20 20 16 12 10 8 6 6 8 10 16 23 29 33 38 41 42 42 49 51 53 52 51 46
23 23 23 24 24 23 25 29 30 33 34 35 39 40 39 32 32 29 24 22 21 21 19 17 15 14 10 10 8 6 7 12 17 21 27 32 39 40 35 43 48 48 49 49 47
23 25 24 23 24 24 26 28 29 32 33 33 33 35 38 39 36 31 28 24 20 18 19 19 16 13 13 11 10 9 8 9 14 17 22 27 30 34 33 37 43 44 45 45 42
25 26 26 25 25 25 26 28 29 30 32 33 33 33 33 35 38 39 33 28 26 21 17 15 17 15 12 11 11 11 11 12 14 17 22 23 25 29 30 34 40 41 42 44 45
28 28 28 28 26 26 27 28 28 30 31 32 33 33 33 33 36 36 38 34 32 28 24 18 15 17 14 13 11 11 12 15 16 19 21 25 27 27 30 33 36 38 39 40 43
30 31 30 31 30 29 28 28 29 30 31 33 33 34 34 34 33 34 35 38 34 33 31 24 20 16 15 14 14 13 13 15 19 19 20 22 24 22 23 27 30 32 36 38 40
35 33 33 34 33 32 31 31 31 30 30 32 34 35 36 36 36 33 33 32 36 36 32 30 25 21 16 18 15 14 16 16 17 18 19 22 12 19 21 23 28 31 36 38 38
40 39 36 37 36 35 34 32 34 34 32 34 35 35 37 37 36 36 35 34 32 35 32 28 29 27 22 18 18 16 18 19 19 14 14 16 11 22 22 23 28 32 36 37 38
44 43 40 40 39 39 39 35 34 37 36 35 35 38 39 40 39 36 36 35 34 34 35 33 27 28 24 23 20 14 17 21 14 15 13 7 14 23 24 27 27 31 34 36 38
47 46 44 43 41 40 40 38 39 40 41 39 40 41 41 40 44 44 40 39 37 36 35 34 32 28 22 24 22 19 17 19 19 14 13 12 11 23 30 29 30 31 32 33 35
48 48 48 46 44 44 42 41 42 43 43 43 42 46 42 45 47 50 43 42 41 39 40 38 35 30 25 23 22 20 21 21 20 17 15 13 14 23 31 29 25 27 30 32 34
Wind_Direction
339 342 340 342 340 340 343 346 349 349 348 343 339 338 331 330 327 316 297 274 253 237 235 231 223 218 213 214 216 217 215 211 211 210 218 210 214 216 217 216 216 216 206 205 203
349 346 346 350 348 348 349 352 354 355 353 348 344 345 341 342 337 330 319 265 293 260 236 228 223 217 213 211 213 216 219 211 212 208 216 218 211 214 216 215 215 214 210 205 205
353 352 355 358 356 355 355 357 358 358 357 353 349 351 350 351 348 343 335 309 270 265 237 231 222 217 214 211 211 213 217 219 209 208 210 220 210 210 213 214 213 212 210 205 206
355 1 4 3 360 358 360 0 1 2 1 358 354 357 357 353 351 350 358 336 286 266 242 223 222 217 216 213 210 211 214 219 214 207 207 212 218 210 210 213 214 214 210 206 208
1 5 6 6 3 2 2 3 3 5 5 3 358 360 359 0 354 349 343 330 300 279 248 219 218 216 215 215 210 211 211 216 219 213 208 207 213 211 210 212 215 216 214 206 211
2 6 7 7 7 6 4 5 5 7 8 8 3 1 3 4 359 359 355 347 337 319 256 218 209 214 213 213 211 211 212 212 220 220 215 203 213 210 211 210 212 213 213 208 208
5 7 8 7 7 9 9 7 7 9 11 12 8 4 7 7 6 3 4 5 359 351 320 217 210 209 214 211 211 210 213 213 215 215 220 216 207 210 206 214 208 209 210 210 207
6 7 7 8 8 9 11 11 9 10 13 14 13 11 11 11 10 7 14 14 4 1 355 253 212 206 212 212 212 212 212 214 213 217 222 222 204 217 216 221 202 204 208 211 204
2 3 5 8 8 9 11 13 12 12 13 15 17 17 13 13 15 12 22 16 12 7 2 321 228 212 207 211 213 214 213 215 216 217 217 226 212 214 217 225 211 199 208 210 218
6 4 5 6 7 8 10 13 13 13 14 15 20 23 19 14 15 20 13 4 4 7 4 350 269 225 213 209 215 217 218 217 217 218 219 222 225 223 204 216 221 213 208 207 213
11 11 12 12 13 12 11 15 14 13 14 16 19 25 24 21 18 13 11 5 3 0 5 358 337 235 227 217 213 217 220 220 220 220 220 218 224 230 225 204 223 225 205 211 204
10 13 15 16 16 15 14 17 16 16 15 15 19 23 26 25 21 16 13 11 6 9 17 8 357 265 224 224 224 220 217 220 220 221 222 221 220 226 233 228 218 223 231 207 216
360 5 10 13 14 16 16 17 18 18 20 15 19 20 23 26 26 22 17 14 10 11 14 11 5 351 229 225 225 226 226 222 219 221 223 223 223 224 229 235 230 211 220 211 213
346 354 2 9 12 15 16 17 13 15 22 17 18 19 19 23 27 26 24 17 14 9 7 12 17 18 357 251 239 230 227 227 226 222 223 224 226 224 227 231 240 236 236 226 211
336 343 351 2 7 12 13 16 13 12 19 16 16 16 18 17 21 24 25 25 18 13 5 359 4 9 347 321 257 245 244 229 226 226 225 225 231 225 227 230 233 238 237 245 242
329 333 340 349 358 3 6 7 11 14 20 16 15 14 16 16 16 18 21 23 22 21 9 359 353 349 347 328 281 252 256 238 223 226 224 226 233 229 230 231 233 235 240 245 248
325 329 332 339 346 351 358 0 4 10 14 15 13 13 12 14 13 14 16 16 18 17 17 14 350 330 328 319 309 276 243 242 233 224 226 228 233 233 230 233 235 235 237 242 244
318 323 328 331 336 343 350 353 357 1 5 8 13 10 13 11 12 12 9 11 11 11 8 7 13 360 328 313 309 298 262 247 243 226 222 230 231 234 232 234 235 238 239 240 243
309 316 320 324 329 334 341 347 350 351 356 358 1 9 9 8 10 8 10 7 3 6 2 4 5 4 1 336 314 295 283 260 251 245 233 229 234 236 237 235 234 236 238 239 241
300 307 312 317 320 322 329 334 339 343 346 349 352 354 2 5 4 6 1 5 8 359 0 355 352 349 347 346 340 318 294 277 271 258 247 234 224 234 233 228 230 231 235 237 238
293 299 304 308 313 314 320 324 328 332 337 340 343 346 348 353 358 360 0 356 355 2 4 350 344 335 340 333 327 319 308 292 276 272 265 243 225 228 229 226 228 230 233 237 238
285 292 297 301 306 309 314 319 320 323 328 330 335 337 340 341 348 350 352 354 354 347 349 356 351 329 324 320 321 315 304 294 288 280 267 262 229 235 235 225 223 224 227 230 234
281 287 293 296 300 303 306 311 313 315 319 323 326 330 333 334 335 340 341 344 345 345 339 338 341 349 317 316 310 310 307 304 294 288 281 268 216 222 227 219 213 215 220 225 230
279 283 286 288 292 297 300 306 307 307 308 314 318 319 324 324 326 332 331 335 336 336 338 333 331 332 335 322 311 304 295 297 299 303 289 273 233 211 219 218 210 213 216 221 225
277 281 284 288 289 293 296 298 299 301 303 307 309 310 315 317 316 321 323 324 328 331 330 330 326 319 318 320 319 301 287 291 305 297 289 288 245 207 222 220 221 218 219 221 226
275 278 279 281 285 287 292 297 295 295 299 301 302 306 307 310 311 315 315 317 320 322 320 325 321 311 316 304 309 316 296 293 301 290 286 261 254 223 221 233 232 227 226 227 229
274 277 280 282 284 286 290 291 295 293 292 299 300 299 301 302 305 309 306 311 311 315 313 317 318 311 309 299 293 295 298 299 289 280 273 264 240 236 230 237 237 242 241 243 244